sat.trackr.live / text

‹ back to catalog

KUIPER-00662

NORAD 69791 · 2026-151AE

PAYLOAD ACTIVE UNKNOWN

§ Identity

Operator
Country
US
Launch date
2026-07-02
Launch site
AFETR
Launch vehicle
Mass (kg)
RCS (m²)

External: N2YO · Heavens-Above · Gunter

§ Orbital elements

Epoch: 2026-09-19T23:02:14.667072Z

Period
97.30 min
Inclination
51.9002°
Eccentricity
0.0000073
Mean motion
14.79910480 rev/d
Perigee alt
629.6 km
Apogee alt
629.7 km
Semi-major
7,007.7 km
B*
2.2780e-4
RAAN
239.0787°
Arg perigee
25.8564°
Mean anomaly
334.2402°
Rev number
1,198

§ Raw data

KUIPER-006621 69791U 26151AE  26262.95989198  .00001515  00000+0  22780-3 0  99962 69791  51.9002 239.0787 0000073  25.8564 334.2402 14.79910480 11987

JSON: /api/v1/satellites/69791 · /tle

For live sub-satellite position, see the globe view (requires WebGL).

§ Visibility from observer

Set your observer location to see the next 7 days of passes ≥ 10°. The values pass through the URL so the page stays shareable.

No JS? Fill the form by hand. The geolocation button needs JavaScript.